TimeEDT,TemperatureF,Dew PointF,Humidity,Sea Level PressureIn,VisibilityMPH,Wind Direction,Wind SpeedMPH,Gust SpeedMPH,PrecipitationIn,Events,Conditions,WindDirDegrees,DateUTC
12:53 AM,55.9,39.9,55,29.80,10.0,SSE,12.7,-,N/A,,Partly Cloudy,150,2013-10-22 04:53:00
1:53 AM,55.9,39.0,53,29.79,10.0,SSE,10.4,-,N/A,,Overcast,160,2013-10-22 05:53:00
2:53 AM,55.0,39.0,55,29.77,10.0,SSE,11.5,-,N/A,,Scattered Clouds,160,2013-10-22 06:53:00
3:53 AM,55.0,39.9,57,29.75,10.0,South,10.4,-,N/A,,Scattered Clouds,170,2013-10-22 07:53:00
4:53 AM,54.0,39.9,59,29.74,10.0,South,11.5,-,N/A,,Overcast,170,2013-10-22 08:53:00
5:53 AM,54.0,39.9,59,29.73,10.0,South,6.9,-,N/A,,Overcast,170,2013-10-22 09:53:00
6:53 AM,52.0,41.0,66,29.70,10.0,South,15.0,19.6,N/A,,Overcast,170,2013-10-22 10:53:00
7:53 AM,51.1,42.1,71,29.70,10.0,South,9.2,-,N/A,,Mostly Cloudy,170,2013-10-22 11:53:00
8:53 AM,51.1,43.0,74,29.70,10.0,South,9.2,-,0.00,Rain,Light Rain,170,2013-10-22 12:53:00
9:53 AM,53.1,43.0,69,29.68,10.0,SSE,10.4,-,0.00,,Partly Cloudy,160,2013-10-22 13:53:00
10:53 AM,54.0,44.1,69,29.67,10.0,SSE,11.5,-,N/A,,Overcast,160,2013-10-22 14:53:00
11:53 AM,48.9,37.9,66,29.70,10.0,West,8.1,18.4,0.00,,Overcast,280,2013-10-22 15:53:00
12:53 PM,51.1,36.0,56,29.69,10.0,WSW,10.4,21.9,N/A,,Overcast,250,2013-10-22 16:53:00
1:53 PM,54.0,34.0,47,29.67,10.0,West,13.8,33.4,N/A,,Partly Cloudy,270,2013-10-22 17:53:00
2:53 PM,53.1,33.1,47,29.70,10.0,West,12.7,24.2,N/A,,Clear,260,2013-10-22 18:53:00
3:53 PM,54.0,30.9,41,29.70,10.0,Variable,6.9,21.9,N/A,,Clear,0,2013-10-22 19:53:00
4:53 PM,53.1,28.0,38,29.72,10.0,West,12.7,20.7,N/A,,Clear,260,2013-10-22 20:53:00
5:53 PM,50.0,25.0,38,29.75,10.0,WSW,10.4,21.9,N/A,,Clear,240,2013-10-22 21:53:00
6:53 PM,46.9,27.0,46,29.78,10.0,Variable,3.5,-,N/A,,Clear,0,2013-10-22 22:53:00
7:53 PM,44.1,28.0,53,29.77,10.0,Calm,Calm,-,N/A,,Clear,0,2013-10-22 23:53:00
8:53 PM,39.9,28.9,65,29.77,10.0,Calm,Calm,-,N/A,,Clear,0,2013-10-23 00:53:00
9:53 PM,36.0,30.0,79,29.78,10.0,Calm,Calm,-,N/A,,Clear,0,2013-10-23 01:53:00
10:53 PM,37.9,30.9,76,29.78,10.0,Calm,Calm,-,N/A,,Clear,0,2013-10-23 02:53:00
11:53 PM,41.0,30.0,65,29.77,10.0,Calm,Calm,-,N/A,,Clear,0,2013-10-23 03:53:00